Regional Weather Roundup
Issued by NWS

Home | Current Version | Previous Version | Text Only | Print | Product List | Glossary Off
Versions: 1 2 3 4 5 6 7 8 9 10 11 12 13 14 15 16 17 18 19 20 21 22 23 24 25 26 27 28 29 30 31 32 33 34 35 36 37 38 39 40 41 42 43 44 45 46 47 48 49 50

000
ASUS44 KFWD 231215
RWRTX
NORTH TEXAS HOURLY WEATHER ROUNDUP
NATIONAL WEATHER SERVICE FORT WORTH TX
700 AM CDT SUN JUL 23 2017

NOTE: "FAIR" INDICATES FEW OR NO CLOUDS BELOW 12,000 FEET WITH NO
SIGNIFICANT WEATHER AND/OR OBSTRUCTIONS TO VISIBILITY.

TXZ118-119-231300-
DALLAS/FORT WORTH METROPLEX

CITY           SKY/WX    TMP DP  RH WIND       PRES   REMARKS
DFW AIRPORT    MOCLDY    81  73  76 S12       29.88R
6HR MIN TEMP:  80; 6HR MAX TEMP:  87;

DALLAS LOVE    PTCLDY    81  72  74 S8        29.89R
6HR MIN TEMP:  81; 6HR MAX TEMP:  87;

FTW MEACHAM    MOCLDY    81  73  76 S5        29.89R
6HR MIN TEMP:  80; 6HR MAX TEMP:  87;

DAL-EXECUTIVE  MOCLDY    78  74  87 S5        29.90R
6HR MIN TEMP:  78; 6HR MAX TEMP:  84;

FTW-ALLIANCE   CLOUDY    78  73  84 E3        29.89R
6HR MIN TEMP:  77; 6HR MAX TEMP:  86;

FTW-NAS-JRB    CLOUDY    81  72  74 S5        29.90R
6HR MIN TEMP:  81; 6HR MAX TEMP:  88;

FTW-SPINKS     MOCLDY    79  72  78 CALM      29.92R
ARLINGTON      PTCLDY    78  74  87 SE6       29.90R
6HR MIN TEMP:  78; 6HR MAX TEMP:  86;

GRAND PRAIRIE  CLEAR     79  72  78 S5        29.91S
ADDISON        PTCLDY    79  72  78 SE10      29.90S
MESQUITE       PTCLDY    73  73 100 S3        29.91S
LANCASTER      CLEAR     75  72  90 CALM      29.92R
6HR MIN TEMP:  74; 6HR MAX TEMP:  81;

$$

TXZ091>094-102>105-117-120-121-131>134-231300-
NORTH CENTRAL TEXAS

CITY           SKY/WX    TMP DP  RH WIND       PRES   REMARKS
SHRMAN/DENISON PTCLDY    77  72  84 S7        29.90S
6HR MIN TEMP:  77; 6HR MAX TEMP:  83;

GAINESVILLE    MOCLDY    76  71  83 SE5       29.91R
6HR MIN TEMP:  75; 6HR MAX TEMP:  80;

BOWIE          CLEAR     74  71  89 SE3       29.89S
6HR MIN TEMP:  74; 6HR MAX TEMP:  80;

BRIDGEPORT     PTCLDY    74  69  86 E3        29.91R
6HR MIN TEMP:  72; 6HR MAX TEMP:  83;

DECATUR        CLEAR     78  71  79 S8        29.90F
6HR MIN TEMP:  76; 6HR MAX TEMP:  84;

DENTON         PTCLDY    78  73  84 S9        29.88S
6HR MIN TEMP:  78; 6HR MAX TEMP:  84;

MCKINNEY       MOCLDY    77  75  93 SE8       29.89F
6HR MIN TEMP:  77; 6HR MAX TEMP:  84;

BONHAM         CLEAR     75  72  88 S7        29.90S
GREENVILLE     CLEAR     79  73  83 S3        29.91S
ROCKWALL       CLEAR     76  74  93 S8        29.90F
6HR MIN TEMP:  76; 6HR MAX TEMP:  82;

TERRELL        CLEAR     77  73  87 S7        29.91R
6HR MIN TEMP:  77; 6HR MAX TEMP:  82;

WAXAHACHIE     CLEAR     75  74  95 CALM      29.92R
6HR MIN TEMP:  75; 6HR MAX TEMP:  82;

CLEBURNE       PTCLDY    77  75  94 S6        29.92R
GRANBURY       CLEAR     80  71  73 CALM      29.91R
6HR MIN TEMP:  78; 6HR MAX TEMP:  86;

$$

TXZ083>090-098>101-113>116-127>130-139>142-154-155-231300-
WESTERN NORTH TEXAS

CITY           SKY/WX    TMP DP  RH WIND       PRES   REMARKS
WICHITA FALLS  PTCLDY    78  67  68 W6        29.87R
6HR MIN TEMP:  73; 6HR MAX TEMP:  84;

WF-KICKAPOO    CLEAR     78  69  73 W5        29.90R
6HR MIN TEMP:  76; 6HR MAX TEMP:  85;

VERNON         CLOUDY    78  61  55 W5        29.90R
6HR MIN TEMP:  76; 6HR MAX TEMP: 104;

ABILENE        PTCLDY    72  65  78 S3        29.95R
6HR MIN TEMP:  72; 6HR MAX TEMP:  83;

ABILENE-DYESS  CLOUDY    76  64  67 CALM      29.94R
6HR MIN TEMP:  74; 6HR MAX TEMP:  84;

GRAHAM         CLEAR     76  64  65 CALM      29.88R
6HR MIN TEMP:  73; 6HR MAX TEMP:  84;

BRECKENRIDGE   CLEAR     78  62  57 CALM      29.91R HAZE
6HR MIN TEMP:  78; 6HR MAX TEMP:  87;

CISCO          PTCLDY    73  64  73 S6        29.94R
EASTLAND       PTCLDY    71  65  83 CALM      29.92S
6HR MIN TEMP:  71; 6HR MAX TEMP:  81;

RANGER         PTCLDY    75  66  73 SW5       29.93R
6HR MIN TEMP:  74; 6HR MAX TEMP:  98;

MINERAL WELLS  PTCLDY    74  68  81 SE8       29.88R
6HR MIN TEMP:  74; 6HR MAX TEMP:  81;

STEPHENVILLE   CLEAR     74  66  75 CALM      29.94F
6HR MIN TEMP:  74; 6HR MAX TEMP:  79;

COMANCHE       PTCLDY    78  70  75 S10       29.92F
6HR MIN TEMP:  77; 6HR MAX TEMP:  82;

BROWNWOOD      MOCLDY    77  66  69 SE6       29.93S
COLEMAN        PTCLDY    76  62  62 CALM      29.94S
6HR MIN TEMP:  76; 6HR MAX TEMP:  85;

$$

TXZ143>147-156>162-174-175-231300-
CENTRAL TEXAS

CITY           SKY/WX    TMP DP  RH WIND       PRES   REMARKS
WACO           CLEAR     79  74  84 S10       29.90R
6HR MIN TEMP:  79; 6HR MAX TEMP:  83;

WACO-TSTC      CLEAR     77  73  88 S7        29.91
WACO-MCGREGOR  CLEAR     77  74  90 S6        29.91R
6HR MIN TEMP:  77; 6HR MAX TEMP:  82;

HILLSBORO      CLEAR     77  73  87 SE6       29.91R
6HR MIN TEMP:  77; 6HR MAX TEMP:  82;

CORSICANA      CLEAR     77  75  93 S8        29.92S
6HR MIN TEMP:  77; 6HR MAX TEMP:  81;

MEXIA          CLEAR     75  74  97 S7        29.91S
6HR MIN TEMP:  75; 6HR MAX TEMP:  78;

HEARNE         MOCLDY    77  77 100 SE3       29.94R
6HR MIN TEMP:  76; 6HR MAX TEMP:  78;

CAMERON        CLEAR     78  75  91 S6        29.92S
6HR MIN TEMP:  78; 6HR MAX TEMP:  82;

TEMPLE         CLEAR     77  74  90 S9        29.92S
6HR MIN TEMP:  77; 6HR MAX TEMP:  84;

KILLEEN        CLOUDY    77  73  85 S8        29.91R
6HR MIN TEMP:  77; 6HR MAX TEMP:  83;

KILLEEN-SKYLRK MOCLDY    78  74  87 S8        29.93R
6HR MIN TEMP:  78; 6HR MAX TEMP:  84;

FORT HOOD      MOCLDY    76  72  87 S7        29.89S
6HR MIN TEMP:  76; 6HR MAX TEMP:  83;

HAMILTON       PTCLDY    77  71  82 S3        29.94R
6HR MIN TEMP:  76; 6HR MAX TEMP:  81;

LAMPASAS         N/A     78  74  86 CALM      29.92S
6HR MIN TEMP:  78; 6HR MAX TEMP:  82;

$$

TXZ095>097-106>112-122>126-135>138-148>153-164>167-231300-
EAST TEXAS

CITY           SKY/WX    TMP DP  RH WIND       PRES   REMARKS
PARIS            N/A     75  73  93 S5          N/A
6HR MIN TEMP:  75; 6HR MAX TEMP:  79;

SULPHUR SPRNGS CLEAR     78  73  85 SW7       29.93S
6HR MIN TEMP:  77; 6HR MAX TEMP:  83;

MOUNT PLEASANT PTCLDY   N/A N/A N/A CALM      29.92S
6HR MIN TEMP:  74; 6HR MAX TEMP:  81;

GILMER         CLOUDY    76  73  88 S3        29.92R
6HR MIN TEMP:  76; 6HR MAX TEMP:  81;

MINEOLA        CLEAR     77  73  88 E6        29.91S
TYLER          PTCLDY    78  76  93 S8        29.92R
6HR MIN TEMP:  78; 6HR MAX TEMP:  82;

LONGVIEW       CLOUDY    78  76  93 S6        29.91S
6HR MIN TEMP:  78; 6HR MAX TEMP:  81;

MARSHALL         N/A     75  73  91 CALM      29.95R
6HR MIN TEMP:  75; 6HR MAX TEMP:  77;

ATHENS         PTCLDY    73  73 100 S3        29.91S
PALESTINE      CLOUDY    76  75  97 SE3       29.94S
JACKSONVILLE   MOCLDY    75  74  99 S6        29.95S
HENDERSON      CLOUDY    76  74  95 MISG      29.94S
6HR MIN TEMP:  76; 6HR MAX TEMP:  79;

CENTER         FOG       80  78  95 CALM      29.94S VSB 1
6HR MIN TEMP:  80; 6HR MAX TEMP:  82;

NACOGDOCHES    CLOUDY    77  73  88 SW5       29.92R
6HR MIN TEMP:  75; 6HR MAX TEMP:  79;

LUFKIN         CLOUDY    76  74  93 S3        29.93R
6HR MIN TEMP:  75; 6HR MAX TEMP:  77;

$$

SUPPLEMENTAL OBSERVATIONS (NWS FORT WORTH AREA)

CITY           SKY/WX    TMP DP  RH WIND       PRES   REMARKS
DENISON DAM      N/A     79  72  78 SE5         N/A


USA.gov is the U.S. government's official web portal to all federal, state and local government web resources and services.